Regional Weather Roundup
Issued by NWS

Home | Current Version | Previous Version | Text Only | Print | Product List | Glossary On
Versions: 1 2 3 4 5 6 7 8 9 10 11 12 13 14 15 16 17 18 19 20 21 22 23 24 25 26 27 28 29 30 31 32 33 34 35 36 37 38 39 40 41 42 43 44 45 46 47 48 49 50
000
ASUS44 KFWD 271015
RWRTX
NORTH TEXAS HOURLY WEATHER ROUNDUP
NATIONAL WEATHER SERVICE FORT WORTH TX
400 AM CST FRI FEB 27 2015

NOTE: "FAIR" INDICATES FEW OR NO CLOUDS BELOW 12,000 FEET WITH NO
SIGNIFICANT WEATHER AND/OR OBSTRUCTIONS TO VISIBILITY.

TXZ118-119-271100-
DALLAS/FORT WORTH METROPLEX

CITY           SKY/WX    TMP DP  RH WIND       PRES   REMARKS
DFW AIRPORT    MOCLDY    26  11  52 NE13      30.40F WCI  15
DALLAS LOVE    PTCLDY    28  11  48 NE9       30.41F WCI  19
FTW MEACHAM    CLEAR     28  11  48 NE10      30.39F WCI  19
DAL-EXECUTIVE  PTCLDY    27  12  53 NE10      30.38F WCI  17
FTW-ALLIANCE   PTCLDY    26  10  50 NE8       30.40F WCI  18
FTW-SPINKS     PTCLDY    28  14  55 NE7       30.41S WCI  21
ARLINGTON      PTCLDY    29  10  45 NE9       30.40F WCI  20
GRAND PRAIRIE  PTCLDY    28  14  55 NE10      30.42F WCI  19
ADDISON        PTCLDY    28  11  49 NE9G16    30.42F WCI  19
MESQUITE       PTCLDY    27  14  57 N8        30.42S WCI  19
LANCASTER      PTCLDY    28  12  52 NE10      30.41F WCI  19
$$

TXZ091>094-102>105-117-120-121-131>134-271100-
NORTH CENTRAL TEXAS

CITY           SKY/WX    TMP DP  RH WIND       PRES   REMARKS
SHRMAN/DENISON CLOUDY    26  14  59 NE15      30.44S WCI  14
GAINESVILLE    CLOUDY    24   8  49 NE9       30.44S WCI  15
BOWIE          CLOUDY    24   8  50 NE6       30.41R WCI  17
BRIDGEPORT     PTCLDY    26  12  54 NE9       30.43R WCI  17
DECATUR        MOCLDY    26   8  47 NE13G23   30.39S WCI  14
DENTON         MOCLDY    25  10  53 NE12      30.41F WCI  14
MCKINNEY       CLEAR     26  11  52 NE9       30.42F WCI  17
GREENVILLE     PTCLDY    28  14  54 NE8       30.41F WCI  20
TERRELL        PTCLDY    29  15  56 NE12      30.41F WCI  19
WAXAHACHIE     PTCLDY    28  16  62 NE8       30.40S WCI  19
CLEBURNE       CLOUDY    28  12  50 NE10      30.40S WCI  19
GRANBURY       MOCLDY    30  13  48 NE6       30.41R WCI  24
$$

TXZ083>090-098>101-113>116-127>130-139>142-154-155-271100-
WESTERN NORTH TEXAS

CITY           SKY/WX    TMP DP  RH WIND       PRES   REMARKS
WICHITA FALLS  CLOUDY    24   6  46 NE17      30.42R WCI  11
WF-KICKAPOO    CLOUDY    26   8  45 NE14      30.44F WCI  15
VERNON         CLOUDY    26  -4  27 NE13      30.44S WCI  15
ABILENE        CLOUDY    25  14  63 NE7       30.33S WCI  17
ABILENE-DYESS  CLOUDY    25  13  60 NE9       30.32S WCI  15
BRECKENRIDGE   CLOUDY    29  14  54 NE9       30.37F WCI  20
GRAHAM         CLOUDY    27  13  57 NE3       30.39R
MINERAL WELLS  MOCLDY    27  11  51 NE8       30.39R WCI  19
STEPHENVILLE   CLOUDY    28  15  56 NE9       30.37F WCI  20
COMANCHE       CLOUDY    28  16  60 E14       30.34F WCI  17
BROWNWOOD      CLOUDY    28  16  59 NE12G18   30.32F WCI  18
COLEMAN        CLOUDY    28  18  66 NE10      30.32S WCI  18
BRADY          CLOUDY    28  18  64 NE10      30.26S WCI  19
$$

TXZ143>147-156>162-174-175-271100-
CENTRAL TEXAS

CITY           SKY/WX    TMP DP  RH WIND       PRES   REMARKS
WACO           CLOUDY    30  17  58 NE15      30.38F WCI  19
WACO-MCGREGOR    N/A     30  16  55 NE14      30.38F WCI  20
HILLSBORO      PTCLDY    28  17  64 N8        30.38F WCI  20
CORSICANA      MOCLDY    29  19  66 N5        30.40F WCI  24
MEXIA          MOCLDY    30  19  63 MISG      30.36F
HEARNE         CLOUDY    35  22  59 N8        30.38F WCI  28
CAMERON        CLOUDY    34  24  65 NE8       30.35F WCI  28
TEMPLE         CLOUDY    30  16  55 N13       30.34F WCI  20
KILLEEN        CLOUDY    31  21  64 NE13      30.31F WCI  22
KILLEEN-SKYLRK MOCLDY    32  18  55 NE9       30.32S WCI  24
FORT HOOD      CLOUDY    31  19  61 NE13      30.33S WCI  22
GATESVILLE     PTCLDY    32  19  59 NE9       30.36F WCI  24
HAMILTON       CLOUDY    31  17  57 NE9       30.33F WCI  23
LAMPASAS       CLOUDY    32  20  63 NE10      30.30F WCI  23
$$

TXZ095>097-106>112-122>126-135>138-148>153-164>167-271100-
EAST TEXAS

CITY           SKY/WX    TMP DP  RH WIND       PRES   REMARKS
PARIS          CLEAR     25  10  54 N8        30.43F WCI  16
SULPHUR SPRNGS PTCLDY    28  15  60 NE9       30.44F WCI  19
MOUNT PLEASANT MOCLDY    29  19  65 NE5       30.45F WCI  24
GILMER         CLOUDY    30  20  66 N6        30.41F WCI  24
MINEOLA        MOCLDY    30  16  55 NE5       30.42F WCI  25
TYLER          CLOUDY    31  18  58 NE10      30.39F WCI  22
LONGVIEW       CLOUDY    33  22  63 NE9       30.39F WCI  25
MARSHALL       PTCLDY    33  23  65 NE3       30.44S
ATHENS         CLOUDY    30  18  59 NE10      30.38F WCI  21
PALESTINE      CLOUDY    33  24  70 N6        30.38F WCI  27
HENDERSON      CLOUDY    32  24  72 NE7       30.39F WCI  26
NACOGDOCHES    CLOUDY    34  27  75 CALM      30.38S
LUFKIN         PTCLDY    35  28  75 NE8       30.36F WCI  29
$$

SUPPLEMENTAL OBSERVATIONS (CENTRAL)

CITY           SKY/WX    TMP DP  RH WIND       PRES   REMARKS
$$

SUPPLEMENTAL OBSERVATIONS (WEST)

CITY           SKY/WX    TMP DP  RH WIND       PRES   REMARKS
$$

SUPPLEMENTAL OBSERVATIONS (EAST)

CITY           SKY/WX    TMP DP  RH WIND       PRES   REMARKS
$$

SUPPLEMENTAL OBSERVATIONS ARE A COLLECTION OF AUTOMATED INSTRUMENTS
THAT ARE MAINTAINED BY A VARIETY OF FEDERAL AND STATE AGENCIES.
CERTAIN ELEMENTS...SUCH AS HUMIDITY VALUES AND SUSTAINED WIND
SPEEDS...MAY BE APPROXIMATED.




USA.gov is the U.S. government's official web portal to all federal, state and local government web resources and services.